Regional Weather Roundup
Issued by NWS Spokane, WA

Home | Current Version | Previous Version | Text Only | Print | Product List | Glossary On
Versions: 1 2 3 4 5 6 7 8 9 10 11 12 13 14 15 16 17 18 19 20 21 22 23 24 25 26 27 28 29 30 31 32 33 34 35 36 37 38 39 40 41 42 43 44 45 46 47 48 49 50
000
NZUS01 KOTX 060710
RWROTX
EASTERN WASHINGTON/NORTHERN IDAHO ROUNDUP
NATIONAL WEATHER SERVICE, SPOKANE WA
1200 AM PDT FRI MAY 06 2016

Note: "fair" indicated few or no clouds below 12,000 feet with no
significant weather and/or obstructions to visibility.

...NORTHEAST WASHINGTON AND NORTHERN IDAHO PANHANDLE...

CITY           SKY/WX    TMP DP  RH WIND       PRES   REMARKS
SPOKANE INTL   CLOUDY    57  49  74 N6        29.94S
SPOKANE DOWNTO CLOUDY    60  50  69 N10       29.94R
COEUR D ALENE  CLOUDY    59  48  67 NE9       29.92R
DEER PARK      CLOUDY    54  49  83 NW8       29.95S
SANDPOINT      CLOUDY    59  46  63 N14G21    29.94S

...SOUTHEAST WASHINGTON AND SOUTHERN IDAHO PANHANDLE...

CITY           SKY/WX    TMP DP  RH WIND       PRES   REMARKS
WALLA WALLA    CLOUDY    62  56  80 S8        29.95R
PULLMAN/MOSCOW LGT RAIN  59  54  83 NE8       29.95F
LEWISTON       LGT RAIN  61  58  90 S10       29.91F
LOWELL           N/A     58  57  97 CALM      29.95R

...COLUMBIA BASIN...

CITY           SKY/WX    TMP DP  RH WIND       PRES   REMARKS
EPHRATA        PTCLDY    60  40  47 N20       29.97S
MOSES LAKE     MOCLDY    56  43  61 N13       29.98R
TRI CITIES     CLOUDY    60  47  61 NW8       29.96R
HERMISTON      CLOUDY    65  48  54 N10       29.94R
PENDLETON      CLOUDY    61  51  70 E6        29.96R

...EAST SLOPES CASCADES...

CITY           SKY/WX    TMP DP  RH WIND       PRES   REMARKS
THE DALLES     LGT RAIN  62  55  77 NW7       29.96S
YAKIMA         CLOUDY    61  48  62 SW5       30.00R
ELLENSBURG     CLOUDY    58  47  66 N9        30.02R
STAMPEDE PASS  CLOUDY    44  42  93 SW5       30.08R
WENATCHEE      MOCLDY    57  45  64 NW7       30.02R
OMAK           CLEAR     57  40  52 NW13      30.04R

...SOUTHERN BRITISH COLUMBIA...

CITY           SKY/WX    TMP DP  RH WIND       PRES   REMARKS
PENTICTON      CLEAR     50  43  76 N7        30.10R
CRANBROOK      PTCLDY    52  45  76 N5        30.09R

...WESTERN MONTANA...

CITY           SKY/WX    TMP DP  RH WIND       PRES   REMARKS
MISSOULA       CLOUDY    59  49  69 MISG      29.98R

...NEIGHBORING CITIES...

CITY           SKY/WX    TMP DP  RH WIND       PRES   REMARKS
SEATTLE        PTCLDY    60  47  61 NE8       30.07R
CALGARY        PTCLDY    46  41  81 W5        30.19R



USA.gov is the U.S. government's official web portal to all federal, state and local government web resources and services.